(413079) = 2001 SN325

Discovered at Palomar on 2001-09-17 by NEAT.

Orbit

Orbit type: Main Belt

Note: WebGL enabled browser required.

epoch2024-03-31.0
epoch JD2460400.5
perihelion date2022-10-23.88477
perihelion JD2459876.38477
argument of perihelion (°)116.12701
ascending node (°)249.85819
inclination (°)11.93870
eccentricity0.1959700
perihelion distance (AU)2.0875969
Tisserand w.r.t. Jupiter3.4
ΔV w.r.t. Earth (km/sec)9.8
semimajor axis (AU)2.5964168
mean anomaly (°)123.47215
mean daily motion (°/day)0.23558210
aphelion distance (AU)3.105
period (years)4.18
P-vector [x]0.97631624
P-vector [y]0.02792457
P-vector [z]0.21453861
Q-vector [x]-0.09532884
Q-vector [y]0.94570717
Q-vector [z]0.31072554
absolute magnitude15.87
phase slope0.15
uncertainty0
referenceMPEC 2024-E23
observations used904
oppositions14
arc length (days)8260
first opposition used2001
last opposition used2024
residual rms (arc-secs)0.60
perturbers coarse indicatorM-v
perturbers precise indicator003Ek
first observation date used2001-07-21.0
last observation date used2024-03-02.0
computer nameMPCLINUX
Minimum Orbit Intersection Distances (in AU)
for orbit epoch: 2460400.5, reference: E2024-E23
Mercury1.74784
Venus1.39254
Earth1.11909
Mars0.71966
Jupiter2.47991
Saturn6.40055
Uranus15.442
Neptune27.4963

Observations

909 total observations over interval: 2001 07 21.34186 – 2024 03 02.162086
These data are available for download (format description).

Date (UT) J2000 RA J2000 Dec Magn Location Ref
2001 07 21.34186 22 38 35.02 +11 18 25.5 18.9 R 699 – Lowell Observatory-LONEOS MPS 59832
2001 07 21.36061 22 38 34.76 +11 18 34.0   699 – Lowell Observatory-LONEOS MPS 59832
2001 07 21.37937 22 38 34.63 +11 18 43.9   699 – Lowell Observatory-LONEOS MPS 59832
2001 07 21.39814 22 38 34.40 +11 18 52.6   699 – Lowell Observatory-LONEOS MPS 59832
2001 07 22.30738 22 38 26.79 +11 26 15.2 18.0 R 699 – Lowell Observatory-LONEOS MPS 59832
2001 07 22.32930 22 38 26.57 +11 26 25.9   699 – Lowell Observatory-LONEOS MPS 59832
2001 07 22.35109 22 38 26.37 +11 26 38.2   699 – Lowell Observatory-LONEOS MPS 59832
2001 07 22.37292 22 38 26.21 +11 26 46.4   699 – Lowell Observatory-LONEOS MPS 59832
2001 08 18.18192 22 25 17.39 +13 25 39.1 18.5 R 699 – Lowell Observatory-LONEOS MPS 59832
2001 08 18.20292 22 25 16.37 +13 25 40.2   699 – Lowell Observatory-LONEOS MPS 59832
2001 08 18.22399 22 25 15.40 +13 25 40.3   699 – Lowell Observatory-LONEOS MPS 59832
2001 08 18.24509 22 25 14.39 +13 25 40.7   699 – Lowell Observatory-LONEOS MPS 59832
2001 08 26.23175 22 18 51.57 +13 17 10.2 18.3 R 699 – Lowell Observatory-LONEOS MPS 59832
2001 08 26.25998 22 18 50.08 +13 17 05.7   699 – Lowell Observatory-LONEOS MPS 59832
2001 08 26.28800 22 18 48.65 +13 17 02.3   699 – Lowell Observatory-LONEOS MPS 59832
2001 08 26.31598 22 18 47.19 +13 16 58.2   699 – Lowell Observatory-LONEOS MPS 59832
2001 09 09.27370 22 07 40.77 +12 14 22.5 18.1 R 699 – Lowell Observatory-LONEOS MPS 58926
2001 09 09.28620 22 07 40.17 +12 14 17.6   699 – Lowell Observatory-LONEOS MPS 58926
2001 09 09.29869 22 07 39.62 +12 14 13.2   699 – Lowell Observatory-LONEOS MPS 58926
2001 09 09.31124 22 07 38.97 +12 14 08.2   699 – Lowell Observatory-LONEOS MPS 58926
2001 09 17.19501 22 02 30.10 +11 18 01.9 18.4   644 – Palomar Mountain/NEAT MPS 57181
2001 09 17.21617 22 02 29.33 +11 17 52.1 18.3   644 – Palomar Mountain/NEAT MPS 57181
2001 09 17.23738 22 02 28.54 +11 17 42.4 18.7   644 – Palomar Mountain/NEAT MPS 57181
2001 09 21.10646 22 00 28.55 +10 46 37.0 18.1 R 699 – Lowell Observatory-LONEOS MPS 57181
2001 09 21.12821 22 00 27.86 +10 46 26.6   699 – Lowell Observatory-LONEOS MPS 57181
2001 09 21.15002 22 00 27.20 +10 46 15.9   699 – Lowell Observatory-LONEOS MPS 57181
2001 09 21.17189 22 00 26.53 +10 46 05.2   699 – Lowell Observatory-LONEOS MPS 57181
2001 10 06.10496 21 56 52.34 +08 39 18.0 18.8   644 – Palomar Mountain/NEAT MPS 59832
2001 10 06.11543 21 56 52.32 +08 39 12.6 18.9   644 – Palomar Mountain/NEAT MPS 59832
2001 10 06.12599 21 56 52.32 +08 39 07.6 18.8   644 – Palomar Mountain/NEAT MPS 59832
2001 10 20.10730 22 00 02.24 +06 51 50.1 18.8 R 699 – Lowell Observatory-LONEOS MPS 59832
2001 10 20.12756 22 00 02.86 +06 51 40.3   699 – Lowell Observatory-LONEOS MPS 59832
2001 10 20.14785 22 00 03.33 +06 51 33.3   699 – Lowell Observatory-LONEOS MPS 59832
2001 10 20.16820 22 00 03.85 +06 51 24.5   699 – Lowell Observatory-LONEOS MPS 59832
2001 11 18.07624 22 24 35.99 +04 50 02.3 19.4   704 – Lincoln Laboratory ETS, New Mexico MPS 59832
2001 11 18.09133 22 24 37.06 +04 50 01.0 19.9   704 – Lincoln Laboratory ETS, New Mexico MPS 59832
2001 11 18.10645 22 24 38.12 +04 49 59.1 19.8   704 – Lincoln Laboratory ETS, New Mexico MPS 59832
2001 11 18.12164 22 24 39.17 +04 49 58.1 19.7   704 – Lincoln Laboratory ETS, New Mexico MPS 59832
2005 06 19.02233 20 40 25.68 -05 02 47.6 19.2 V 941 – Observatorio Pla D'Arguines MPS 136923
2005 06 19.02308 20 40 25.67 -05 02 47.3 19.3 V 941 – Observatorio Pla D'Arguines MPS 136923
2005 06 19.02458 20 40 25.65 -05 02 46.5 19.2 V 941 – Observatorio Pla D'Arguines MPS 136923
2005 06 19.02609 20 40 25.64 -05 02 45.9 19.4 V 941 – Observatorio Pla D'Arguines MPS 136923
2005 06 27.44295 20 37 23.14 -04 02 10.0 18.9   644 – Palomar Mountain/NEAT MPS 137927
2005 06 27.45510 20 37 22.77 -04 02 05.3 18.8   644 – Palomar Mountain/NEAT MPS 137927
2005 06 27.46558 20 37 22.47 -04 02 01.1 18.8   644 – Palomar Mountain/NEAT MPS 137927
2005 06 30.34133 20 35 54.20 -03 43 22.8 18.6 V 703 – Catalina Sky Survey MPS 136923
2005 06 30.34833 20 35 53.91 -03 43 19.7 18.2 V 703 – Catalina Sky Survey MPS 136923
2005 06 30.35537 20 35 53.66 -03 43 16.5 18.5 V 703 – Catalina Sky Survey MPS 136923
2005 06 30.36237 20 35 53.44 -03 43 15.0 18.6 V 703 – Catalina Sky Survey MPS 136923
2006 11 28.38637 07 56 05.06 +12 06 43.3 19.7   704 – Lincoln Laboratory ETS, New Mexico MPS 191869
2006 11 28.39936 07 56 04.90 +12 06 38.0 19.6   704 – Lincoln Laboratory ETS, New Mexico MPS 191869
2006 11 28.42529 07 56 04.33 +12 06 29.4 19.9   704 – Lincoln Laboratory ETS, New Mexico MPS 191869
2006 11 28.43840 07 56 04.27 +12 06 24.4 20.1   704 – Lincoln Laboratory ETS, New Mexico MPS 191869
2009 07 23.20875 18 14 42.00 -12 13 35.7 19.1   704 – Lincoln Laboratory ETS, New Mexico MPS 289800
2009 07 23.21949 18 14 41.49 -12 13 35.0 19.9   704 – Lincoln Laboratory ETS, New Mexico MPS 289800
2009 07 23.23020 18 14 41.01 -12 13 33.6 19.9   704 – Lincoln Laboratory ETS, New Mexico MPS 289800
2009 07 23.25158 18 14 39.99 -12 13 30.8 19.7   704 – Lincoln Laboratory ETS, New Mexico MPS 289800
2010 12 02.33157 06 19 01.17 +18 26 04.8 19.1   704 – Lincoln Laboratory ETS, New Mexico MPS 358716
2010 12 02.34446 06 19 00.46 +18 26 00.7 19.4   704 – Lincoln Laboratory ETS, New Mexico MPS 358716
2010 12 02.35736 06 18 59.84 +18 25 56.8 19.7   704 – Lincoln Laboratory ETS, New Mexico MPS 358716
2010 12 02.37037 06 18 59.01 +18 25 52.7 19.5   704 – Lincoln Laboratory ETS, New Mexico MPS 358716
2010 12 02.38327 06 18 58.30 +18 25 45.8 19.7   704 – Lincoln Laboratory ETS, New Mexico MPS 358716
2010 12 03.21800 06 18 13.52 +18 21 01.9 20.3 V 691 – Steward Observatory, Kitt Peak-Spacewatch MPS 358716
2010 12 03.23575 06 18 12.55 +18 20 56.3 19.5 V 691 – Steward Observatory, Kitt Peak-Spacewatch MPS 358716
2010 12 03.25348 06 18 11.56 +18 20 50.1 19.8 V 691 – Steward Observatory, Kitt Peak-Spacewatch MPS 358716
2010 12 04.35574 06 17 10.44 +18 14 36.0 19.0   704 – Lincoln Laboratory ETS, New Mexico MPS 358716
2010 12 04.36873 06 17 09.63 +18 14 31.4 19.3   704 – Lincoln Laboratory ETS, New Mexico MPS 358716
2010 12 04.38177 06 17 08.91 +18 14 27.5 19.7   704 – Lincoln Laboratory ETS, New Mexico MPS 358717
2010 12 04.39477 06 17 08.18 +18 14 23.1 19.4   704 – Lincoln Laboratory ETS, New Mexico MPS 358717
2010 12 04.40777 06 17 07.38 +18 14 16.9 19.6   704 – Lincoln Laboratory ETS, New Mexico MPS 358717
2010 12 12.25998 06 09 17.51 +17 30 57.0 19.3   704 – Lincoln Laboratory ETS, New Mexico MPS 358717
2010 12 12.27314 06 09 16.68 +17 30 52.2 19.6   704 – Lincoln Laboratory ETS, New Mexico MPS 358717
2010 12 12.29953 06 09 14.94 +17 30 44.1 19.6   704 – Lincoln Laboratory ETS, New Mexico MPS 358717
2013 07 01.32419 16 47 17.600 -18 11 56.97 19.6 w F51 – Pan-STARRS 1, Haleakala MPS 471328
2013 07 01.33754 16 47 16.967 -18 11 53.01 19.6 w F51 – Pan-STARRS 1, Haleakala MPS 471328
2013 07 01.36422 16 47 15.703 -18 11 45.14 19.5 w F51 – Pan-STARRS 1, Haleakala MPS 471328
2014 10 21.46086 04 32 54.00 +27 47 44.4 19.3 R 926 – Tenagra II Observatory, Nogales MPS 540463
2014 10 21.48468 04 32 53.50 +27 47 37.4 19.4 R 926 – Tenagra II Observatory, Nogales MPS 540463
2014 10 21.50485 04 32 53.10 +27 47 31.5 19.4 R 926 – Tenagra II Observatory, Nogales MPS 540463
2014 10 24.34456 04 31 53.51 +27 33 01.6 18.7 V 703 – Catalina Sky Survey MPS 540463
2014 10 24.35270 04 31 53.32 +27 33 00.0 18.7 V 703 – Catalina Sky Survey MPS 540463
2014 10 24.36083 04 31 52.98 +27 32 57.1 19.2 V 703 – Catalina Sky Survey MPS 540463
2014 10 24.36898 04 31 52.75 +27 32 54.6 19.1 V 703 – Catalina Sky Survey MPS 540463
2014 10 24.37314 04 31 52.62 +27 32 52.4 19.4 r G45 – Space Surveillance Telescope, Atom Site MPS 558624
2014 10 24.38780 04 31 52.23 +27 32 48.3 19.1 r G45 – Space Surveillance Telescope, Atom Site MPS 558624
2014 10 24.40161 04 31 51.86 +27 32 43.6 19.3 r G45 – Space Surveillance Telescope, Atom Site MPS 558624
2014 10 24.41449 04 31 51.51 +27 32 39.5 19.1 r G45 – Space Surveillance Telescope, Atom Site MPS 558624
2014 10 24.42658 04 31 51.18 +27 32 35.6 19.2 r G45 – Space Surveillance Telescope, Atom Site MPS 558624
2014 10 26.44393 04 30 57.73 +27 21 25.7 19.3 r G45 – Space Surveillance Telescope, Atom Site MPS 558624
2014 10 26.44494 04 30 57.71 +27 21 25.8 19.6 r G45 – Space Surveillance Telescope, Atom Site MPS 558624
2014 10 26.48351 04 30 56.49 +27 21 12.3 19.3 r G45 – Space Surveillance Telescope, Atom Site MPS 558624
